CAPE
0 0 0 0 0 0 0 0 0 0 0 0 0 0 0 0 0 0 0 0 0 0 0 0 0 0 0 0 0 0 0 150 309 191 411 229 258 238 198 227 124 437 762
0 0 0 0 0 0 0 0 0 0 0 0 0 0 0 0 0 0 0 0 0 0 0 0 0 0 0 0 0 0 0 104 409 268 418 277 315 257 266 124 270 232 621
0 0 0 0 0 0 0 0 8 2 0 10 44 23 0 0 0 0 0 0 0 0 0 0 0 0 1 5 1 1 1 45 405 433 214 281 164 208 448 238 386 212 302
0 2 0 0 0 0 0 0 20 118 194 248 262 228 77 1 0 0 0 8 1 1 3 1 0 0 0 0 6 4 36 41 382 388 245 204 189 342 365 576 296 323 466
0 0 87 111 1 0 0 58 232 415 352 281 307 70 1 3 7 38 47 67 66 37 10 10 1 1 0 0 7 7 57 63 332 353 280 179 285 273 392 477 284 285 147
0 25 279 189 49 164 536 851 899 837 547 294 315 10 4 5 24 51 12 14 24 62 55 28 3 1 3 14 72 123 14 132 196 305 308 215 256 388 407 335 114 526 530
0 19 125 21 133 361 510 677 820 840 585 302 174 71 27 35 24 84 81 31 15 67 60 77 14 3 6 33 117 114 165 279 168 289 307 228 210 321 384 295 372 773 573
0 0 0 0 0 0 0 0 0 7 38 19 0 0 0 1 3 15 14 4 2 0 4 94 105 0 1 11 177 136 124 213 218 338 362 365 272 271 303 171 465 689 535
0 0 0 0 0 0 0 0 0 0 0 0 0 0 0 0 0 0 1 5 10 10 2 100 216 34 0 0 0 178 107 118 404 224 353 376 290 276 310 144 130 112 256
0 0 0 0 0 0 0 0 0 0 0 0 0 0 0 2 1 0 0 0 9 13 77 327 334 123 1 4 0 185 162 226 441 255 552 522 402 388 385 256 211 119 123
0 0 0 0 0 0 0 0 0 0 0 0 0 0 0 0 0 0 0 10 49 132 145 439 405 296 100 19 0 266 183 231 339 169 700 748 498 543 313 96 50 19 45
0 0 0 0 0 0 0 0 0 0 7 0 0 0 0 0 0 0 0 9 47 218 327 398 440 350 184 31 0 353 111 171 137 388 781 890 693 557 294 13 0 0 49
0 0 0 0 0 0 0 0 0 0 0 0 0 0 0 0 0 0 0 0 1 33 133 354 388 388 261 25 0 143 50 57 64 441 712 582 647 536 268 129 21 20 16
0 0 0 0 0 0 0 0 0 0 0 0 0 0 0 0 0 0 0 0 0 0 127 225 251 254 160 26 0 9 118 10 57 417 624 668 586 611 426 264 93 62 25
0 0 0 0 0 11 6 0 0 0 0 0 0 0 0 0 0 4 4 0 0 0 33 153 230 162 50 15 0 17 178 86 286 447 597 632 692 696 434 294 135 25 18
0 0 0 0 9 5 0 0 0 0 0 0 0 4 0 6 7 0 0 0 0 0 30 77 111 136 85 26 0 10 171 244 393 542 545 797 673 479 354 195 56 38 38
0 0 0 0 0 0 0 0 0 0 0 0 3 6 6 25 6 0 5 0 1 0 5 86 114 94 53 45 0 201 209 264 225 411 469 638 455 372 317 233 135 89 92
0 0 0 0 0 0 0 0 0 1 1 8 17 6 6 23 8 0 21 15 9 0 1 33 73 113 133 142 62 174 240 268 227 498 475 513 524 401 344 214 126 66 44
0 0 0 0 0 0 1 0 0 0 50 115 12 0 0 0 0 0 25 30 39 0 0 0 3 41 95 70 73 47 156 225 212 643 537 512 422 315 182 52 80 116 137
0 0 0 0 0 15 0 2 1 20 192 147 23 0 0 0 0 0 69 39 22 0 0 0 12 55 134 119 110 91 160 180 301 627 579 448 342 204 104 113 102 61 71
0 0 0 0 0 0 0 17 0 24 0 17 32 1 0 0 0 0 67 55 28 0 7 16 22 86 133 78 56 2 90 131 183 669 471 349 240 93 13 15 11 7 24
0 0 23 2 0 0 8 162 80 136 96 59 53 42 11 2 1 0 30 54 38 8 8 44 68 115 45 94 69 104 139 124 283 431 344 178 96 0 5 15 14 4 5
0 0 20 10 0 0 111 123 19 20 31 22 38 21 11 12 14 11 51 49 50 69 8 49 56 54 54 123 135 160 11 5 245 226 178 88 15 7 11 18 4 10 3
0 0 2 0 0 10 6 0 31 43 7 21 28 31 26 31 18 23 41 40 47 46 53 112 84 59 43 93 166 88 76 99 184 118 71 22 8 5 1 0 5 32 64
0 0 0 0 0 80 75 4 120 26 30 22 3 7 0 9 50 32 103 95 51 135 74 122 2 60 3 79 110 100 80 97 112 33 13 8 3 2 2 1 1 28 65
0 0 0 0 0 80 166 11 0 0 2 4 0 1 8 23 38 54 60 143 52 113 124 151 2 45 0 60 134 82 64 90 40 33 19 5 10 6 2 8 1 69 100
CIN
0 0 0 0 0 0 0 0 0 0 0 0 0 0 0 0 0 0 0 0 0 0 0 0 0 0 0 0 0 0 0 -11 -12 -24 -15 -25 -41 -69 -108 -81 -66 -3 -1
0 0 0 0 0 0 0 0 0 0 0 0 0 0 0 0 0 0 0 0 0 0 0 0 0 0 0 0 0 0 0 -11 -1 -14 -16 -43 -28 -51 -72 -65 -25 -3 -2
0 0 0 0 0 0 0 0 -333 -81 -44 -247 -162 -207 0 0 0 0 0 0 0 0 0 0 0 0 0 -0 0 -0 0 -6 -3 -2 -6 -15 -46 -38 -22 -44 -8 -13 -6
0 -185 0 0 0 0 0 0 -241 -83 -34 -18 -18 -26 -106 -0 -0 0 0 -2 -1 -0 -0 -0 -0 0 0 0 0 -0 -39 -16 -1 -4 -15 -16 -34 -22 -15 -7 -18 -8 -6
0 0 -289 -258 -120 0 0 -203 -59 -9 -4 -6 -16 -142 0 0 0 0 -0 -0 -0 -0 -0 -0 -0 -0 0 -0 0 -1 -2 -5 -0 -16 -5 -14 -14 -24 -18 -9 -27 -33 -48
0 -236 -125 -203 -297 -174 -75 -15 -1 -1 -1 -16 -9 -8 0 -0 -0 -1 -0 -0 -0 0 -0 -0 -0 -0 -0 -0 -3 -4 -2 -3 -3 -5 -8 -14 -19 -11 -19 -24 -48 -7 -4
0 -166 -185 -287 -178 -106 -68 -34 -6 -1 -2 -15 -53 -122 -1 -1 -0 0 0 -0 -0 -0 -0 -14 -0 0 0 -1 -0 -5 -1 -0 -6 -6 -6 -12 -15 -8 -11 -14 -10 -0 -3
0 0 0 0 0 0 0 0 0 -84 -162 -88 0 0 0 -0 -0 0 -0 -0 0 -0 -0 -51 -46 0 -0 0 -0 -3 -7 -3 -1 -3 -3 -5 -13 -5 -11 -15 -3 -2 -2
0 0 0 0 0 0 0 0 0 0 0 0 0 0 0 0 0 0 0 -0 -0 -0 0 -25 -0 -48 0 0 0 -6 -13 -8 -1 -29 -14 -13 -12 -6 -7 -10 -10 -21 -3
0 0 0 0 0 0 0 0 0 0 0 0 0 0 0 -0 -0 0 0 0 -0 0 -35 -0 -0 -2 -1 -10 0 -7 -12 -6 -7 -35 -3 -12 -10 -1 0 -0 -1 -2 -4
0 0 0 0 0 0 0 0 0 0 0 0 0 0 0 0 0 0 0 -1 -5 -5 -1 -0 0 -0 -5 -38 0 -4 -10 -14 -22 -54 -5 -3 -6 -0 -2 -12 -32 -78 -7
0 0 0 0 0 0 0 0 0 0 -26 0 0 0 0 0 0 0 0 -2 -6 -1 -1 -0 -0 -1 -1 -40 0 -2 -27 -36 -44 -31 -7 -0 0 0 -1 -87 0 0 -15
0 0 0 0 0 0 0 0 0 0 0 0 0 0 0 0 0 0 0 0 -1 -31 -9 -1 -0 -1 -3 -50 0 -25 -89 -116 -96 -29 -11 -12 -0 -0 -6 -14 -64 -37 -16
0 0 0 0 0 0 0 0 0 0 0 0 0 0 0 0 0 0 0 0 0 0 -12 -9 -16 -9 -11 -55 0 -9 -71 -191 -104 -29 -15 -11 -4 0 0 0 -3 -8 -9
0 0 0 0 0 -337 -285 0 0 0 0 0 0 0 0 0 0 -58 -27 0 0 0 -15 -10 -13 -21 -35 -67 0 -14 -48 -70 -38 -33 -21 -19 -4 -0 0 0 0 -20 -9
0 0 0 0 -367 -333 0 0 0 0 0 0 0 -14 0 -52 -50 -0 0 0 0 0 -16 -30 -31 -27 -24 -43 0 -10 -45 -16 -9 -20 -25 -8 -1 -4 0 -5 -27 -36 -3
0 0 0 0 0 0 0 0 0 0 0 0 -16 -17 -25 -20 -31 -3 -43 0 -3 0 -17 -33 -24 -26 -21 -39 0 -48 -23 -13 -17 -19 -23 -21 -15 -9 -0 -21 -0 -18 0
0 0 0 0 0 0 0 0 0 -8 -12 -30 -26 -14 -19 -21 -40 0 -26 -18 -15 0 -38 -48 -37 -19 -20 -17 -35 -28 -25 -30 -15 -27 -20 -22 -5 -3 -0 -0 -4 -11 -11
0 0 0 0 0 0 -90 0 0 0 -52 -21 -39 0 0 0 0 0 -20 -25 -16 0 0 0 -26 -40 -35 -23 -19 -24 -49 -30 -23 -22 -23 -9 -5 -0 -1 -10 -3 -0 -1
0 0 0 0 0 -190 0 -27 -9 -52 -28 -28 -47 0 0 0 0 0 -15 -22 -16 0 -15 0 -43 -45 -27 -21 -14 -30 -70 -31 -14 -9 -5 -2 -4 -4 -3 -0 -0 -1 -3
0 0 -1 0 0 -1 0 -80 0 -49 0 -44 -45 -48 0 0 0 0 -14 -25 -20 0 -63 -65 -44 -28 -25 -30 -30 -85 -60 -15 -15 -0 -3 -7 -9 -9 -19 -20 -13 -6 -1
0 0 -346 -229 0 0 -36 -29 -37 -40 -28 -24 -34 -31 -39 -5 -3 0 -31 -34 -28 -29 -52 -36 -27 -19 -36 -26 -17 -12 -0 -2 -10 -1 -7 -16 -21 0 -26 -26 -60 -5 -0
0 0 -337 -280 0 0 -56 -50 -45 -35 -30 -28 -21 -33 -35 -31 -26 -35 -32 -48 -33 -27 -38 -31 -31 -23 -27 -35 -21 -19 -17 -1 0 -7 -14 -26 -44 -47 -17 -89 0 -3 -48
0 0 -283 0 0 -117 -87 0 -57 -36 -16 -28 -26 -34 -28 -27 -11 -16 -46 -31 -40 -29 -23 -26 -34 -44 -39 -21 -9 -28 -52 -60 -4 -14 -30 -31 -50 -26 -4 0 -4 -7 -7
0 0 0 0 0 -78 -66 -56 -34 -31 -31 -20 -31 -36 -6 -43 -21 -18 -23 -27 -25 -23 -37 -52 -71 -54 -55 -46 -12 -30 -48 -57 -27 -23 -34 -13 -1 0 0 0 -3 -0 0
0 0 0 0 0 -71 -45 -62 0 0 -8 -64 0 -24 -47 -31 -29 -23 -20 -13 -20 -25 -29 -39 -11 -80 0 -33 -33 -42 -55 -54 -25 -9 -16 -2 -29 0 -0 -1 -6 0 -0
Wind_Speed
8 8 6 7 7 8 8 9 11 12 13 14 15 15 16 18 18 18 18 18 17 17 17 17 18 19 20 20 20 22 24 26 26 19 16 17 11 10 9 4 4 4 4
8 6 6 6 7 7 9 10 11 11 12 13 14 14 14 15 17 18 18 18 17 17 17 17 18 19 21 21 21 22 24 26 26 20 16 15 16 8 6 6 1 2 5
9 7 6 6 7 8 9 10 11 11 11 11 12 13 13 13 16 18 18 18 17 18 18 18 18 20 23 23 22 22 24 26 26 22 18 16 11 7 9 9 2 6 5
9 7 6 5 6 7 9 10 11 11 11 12 13 14 14 14 15 16 17 18 19 19 18 19 20 22 23 25 25 24 24 25 25 23 21 17 15 11 9 4 3 3 4
9 6 5 5 6 8 10 11 11 12 11 12 13 15 16 16 15 15 15 17 18 20 19 20 20 22 24 26 27 26 25 24 25 24 24 22 17 11 7 5 5 5 1
11 8 8 8 9 11 13 14 13 12 13 14 15 16 17 17 17 16 16 18 18 18 19 20 20 21 23 26 28 28 26 24 25 25 26 26 22 13 10 7 5 5 5
15 12 11 11 12 13 14 14 15 16 16 18 19 19 18 18 18 18 19 20 20 17 18 19 20 21 22 25 26 28 27 25 25 25 26 28 24 16 11 9 7 5 5
12 12 13 13 13 14 13 14 15 16 16 18 19 19 19 19 19 19 20 20 20 20 19 19 20 20 23 25 26 28 28 26 26 25 26 27 26 18 14 11 8 7 5
13 11 12 12 13 13 13 15 15 16 16 18 18 19 20 20 20 20 20 21 21 20 19 19 18 19 22 26 26 29 29 27 27 26 27 26 23 19 16 13 10 8 7
9 9 10 11 15 16 16 15 15 15 14 17 18 19 19 19 20 19 18 18 18 18 18 20 16 18 21 26 27 29 29 28 27 27 25 22 18 16 14 12 10 10 8
8 9 11 15 19 20 17 16 15 13 14 15 16 18 20 18 16 17 19 17 12 13 16 19 17 18 20 27 28 28 27 27 28 28 23 21 17 16 15 16 13 12 7
7 10 14 16 20 22 24 23 14 14 15 14 16 21 18 19 17 18 18 19 19 15 10 13 16 16 18 24 27 28 26 27 28 28 24 20 17 15 14 13 10 10 10
9 11 14 17 21 23 23 21 20 19 15 15 17 17 16 17 16 18 18 19 19 20 15 11 14 17 19 22 28 27 27 26 28 27 24 21 20 20 18 18 12 9 11
10 12 16 18 21 23 21 20 17 18 17 16 16 14 13 13 14 15 16 20 17 15 12 11 12 17 22 24 28 26 26 26 27 25 24 20 19 22 19 15 10 10 9
12 13 16 19 20 19 19 17 17 17 16 15 11 9 11 10 13 13 11 18 17 13 10 7 15 21 27 29 29 27 25 25 25 24 22 18 18 19 17 12 10 7 11
11 14 15 17 16 18 16 15 15 15 13 14 13 11 11 7 9 7 6 15 14 13 9 9 16 28 31 29 31 30 24 23 24 22 18 15 14 17 16 13 11 10 15
10 12 14 15 14 15 14 13 13 11 13 15 14 12 12 9 6 4 5 8 8 9 13 3 23 30 30 31 32 27 23 23 21 20 16 13 14 13 15 12 13 9 13
10 11 13 16 17 15 15 16 15 17 17 16 15 12 10 9 6 4 5 6 6 5 19 17 27 29 28 27 28 24 23 23 18 17 14 13 12 10 11 12 12 12 16
8 11 13 15 17 16 16 15 15 17 16 16 18 16 13 9 5 6 6 7 9 8 10 30 31 31 28 26 27 25 23 20 17 14 10 11 10 9 10 11 12 11 14
9 10 13 14 16 16 16 19 17 17 15 14 17 16 15 9 7 8 8 10 11 15 18 25 31 30 27 25 23 22 27 18 18 14 11 10 10 8 8 11 17 11 10
9 9 11 11 14 15 16 18 20 19 16 15 12 13 11 9 8 10 10 12 16 17 22 30 30 28 28 26 21 17 19 20 16 13 13 11 10 8 7 8 8 10 13
8 8 8 11 13 16 16 19 19 20 19 14 14 15 14 12 9 12 13 15 20 23 28 29 28 25 25 26 27 17 17 17 16 15 12 11 8 7 7 6 8 8 11
8 8 8 11 14 15 17 22 21 24 22 20 15 16 15 15 13 13 16 18 22 26 29 27 26 24 26 25 21 20 18 23 14 16 12 11 9 8 5 7 9 14 12
8 8 9 12 13 13 18 22 24 24 23 18 15 18 18 18 15 15 20 21 23 23 17 16 21 22 23 26 23 17 18 15 16 14 13 12 9 8 7 10 8 22 18
9 9 11 12 13 13 15 20 25 27 25 18 19 20 19 17 16 18 22 23 25 23 24 9 16 20 25 26 23 18 12 12 18 16 13 12 10 9 7 8 7 9 13
10 11 11 11 13 12 14 20 25 25 21 23 23 22 19 16 17 20 23 24 24 19 24 22 16 24 18 25 20 17 15 18 19 20 12 11 10 11 6 8 11 8 21
Wind_Direction
44 78 68 45 38 33 26 12 1 356 354 352 349 346 346 345 345 345 344 340 336 331 325 317 310 306 302 298 292 286 282 278 274 272 273 280 277 279 281 30 319 3 22
60 62 56 43 31 27 15 3 356 352 351 350 348 347 346 344 340 337 337 336 334 329 322 316 309 302 299 297 291 287 282 278 273 270 265 265 268 271 270 277 331 64 67
34 45 44 35 24 16 4 357 353 351 350 349 347 344 342 338 335 331 330 330 328 325 319 312 306 299 293 291 289 286 282 277 274 265 258 260 265 270 258 256 251 107 81
32 39 40 33 18 5 360 354 350 348 345 342 340 339 336 332 327 325 325 324 321 319 315 310 301 294 288 284 282 281 280 275 274 263 256 253 257 255 256 229 143 129 92
15 34 41 38 20 1 355 351 347 343 339 338 337 335 332 328 325 321 319 318 316 313 310 306 301 292 285 281 276 277 276 274 273 263 255 253 253 248 235 202 159 131 118
10 19 28 27 13 357 351 348 345 340 336 334 332 330 328 325 322 319 316 312 311 308 305 302 297 292 285 279 273 271 270 271 270 263 256 252 252 243 229 201 187 155 128
21 27 25 19 9 2 354 350 346 341 337 334 331 328 326 323 320 318 314 310 307 303 302 297 292 289 283 278 273 267 266 266 266 262 256 251 249 243 230 208 178 173 143
25 23 14 16 10 2 359 357 354 350 344 338 333 330 326 322 317 314 311 307 302 298 296 292 285 284 279 274 272 266 261 261 260 261 255 252 248 240 227 210 186 172 183
29 27 20 15 8 4 359 356 353 351 348 343 339 334 327 322 317 314 312 307 301 295 291 285 278 277 277 270 268 263 258 257 256 256 253 253 248 236 227 217 210 200 168
32 33 20 15 5 3 358 358 352 351 352 348 346 342 340 335 329 323 319 314 306 297 290 281 273 272 275 268 264 260 256 254 252 252 251 251 242 228 218 211 197 216 210
24 30 23 15 9 4 1 356 354 355 354 353 351 350 343 340 339 333 325 321 312 308 291 279 269 269 274 265 258 256 254 251 249 248 249 246 235 228 219 218 229 223 210
36 29 19 12 3 360 354 354 358 357 356 355 352 344 347 341 341 335 327 321 319 313 295 280 268 266 271 264 254 252 253 249 246 244 245 244 230 219 214 204 204 219 228
32 23 12 4 2 359 358 356 354 353 357 357 352 352 353 348 347 345 333 323 313 307 303 286 268 265 266 263 249 250 249 247 243 242 243 241 229 221 223 225 226 216 226
21 11 8 4 0 1 4 3 3 2 2 355 354 356 355 359 354 350 341 318 318 314 306 287 266 262 259 257 245 247 247 243 241 239 239 239 229 227 228 224 182 174 197
6 4 2 360 2 6 7 11 8 2 360 357 7 6 357 354 358 354 354 327 328 317 306 282 264 257 248 243 240 242 244 239 239 238 239 240 232 229 229 211 209 195 174
1 357 5 3 10 10 13 12 10 11 10 6 2 5 0 360 7 34 32 339 338 317 302 277 263 245 237 239 234 237 240 240 237 237 237 236 228 227 215 201 151 138 216
357 5 6 7 12 14 14 13 13 17 14 8 8 7 10 17 22 74 57 16 10 332 290 220 249 232 233 233 229 236 235 237 235 233 233 232 228 202 199 195 155 154 196
8 6 10 9 14 15 17 14 15 9 11 14 17 25 22 18 36 92 79 53 73 27 265 155 233 225 230 233 228 232 231 236 234 228 225 224 222 198 194 190 196 160 145
12 11 10 14 11 16 17 17 14 14 14 16 17 24 30 34 68 102 105 113 113 98 131 181 220 216 225 229 227 227 229 232 231 222 212 215 210 207 211 184 176 166 151
18 19 13 14 17 20 21 16 26 23 32 32 27 32 32 50 90 115 111 128 111 127 138 227 217 219 226 224 217 223 225 233 230 219 205 203 203 192 202 204 222 208 195
22 21 19 27 22 23 25 23 23 23 26 24 36 38 46 65 102 121 109 136 142 132 146 207 212 219 215 214 213 214 223 231 223 212 203 202 200 192 184 201 218 208 202
23 27 39 33 29 27 32 25 25 22 20 26 34 35 46 60 102 123 131 136 147 150 173 200 213 219 218 213 210 216 225 218 218 209 195 196 187 180 173 175 178 167 163
27 39 52 40 30 36 33 22 28 18 20 24 38 40 51 54 87 102 132 129 148 169 176 207 213 219 213 215 216 226 221 216 208 212 189 189 171 162 158 149 146 129 154
33 59 52 42 38 43 30 20 22 24 24 30 41 41 56 55 96 104 127 135 151 189 217 222 216 218 214 216 221 231 232 212 216 206 199 187 188 172 141 131 147 126 199
73 71 61 50 48 49 43 32 21 22 25 50 50 48 56 68 92 115 139 141 154 189 195 223 215 216 213 216 219 222 221 209 215 212 174 186 200 189 151 156 171 144 203
79 75 64 69 59 61 59 33 24 36 57 55 49 40 55 77 114 122 141 172 178 203 195 204 221 211 222 216 220 219 213 217 208 211 174 185 185 199 154 139 130 164 208